Time,TemperatureF,DewpointF,PressureIn,WindDirection,WindDirectionDegrees,WindSpeedMPH,WindSpeedGustMPH,Humidity,HourlyPrecipIn,Conditions,Clouds,dailyrainin,SoftwareType,DateUTC
2013-02-01 00:15:00,31.6,16.0,29.59,West,263,4.0,10.0,53,0.00,,,0.00,weatherlink.com 1.10,2013-02-01 05:15:00,
2013-02-01 00:31:00,31.3,17.0,29.60,SW,222,3.0,7.0,55,0.00,,,0.00,weatherlink.com 1.10,2013-02-01 05:31:00,
2013-02-01 00:45:00,31.1,16.0,29.60,West,261,2.0,11.0,54,0.00,,,0.00,weatherlink.com 1.10,2013-02-01 05:45:00,
2013-02-01 01:00:00,31.1,16.0,29.60,SW,217,1.0,12.0,53,0.00,,,0.00,weatherlink.com 1.10,2013-02-01 06:00:00,
2013-02-01 01:15:00,30.8,16.0,29.60,WNW,285,4.0,7.0,54,0.00,,,0.00,weatherlink.com 1.10,2013-02-01 06:15:00,
2013-02-01 01:31:00,30.9,13.0,29.61,West,278,4.0,11.0,48,0.00,,,0.00,weatherlink.com 1.10,2013-02-01 06:31:00,
2013-02-01 01:46:00,31.1,11.0,29.62,West,263,7.0,18.0,43,0.00,,,0.00,weatherlink.com 1.10,2013-02-01 06:46:00,
2013-02-01 02:01:00,30.9,11.0,29.62,NW,323,6.0,21.0,43,0.00,,,0.00,weatherlink.com 1.10,2013-02-01 07:01:00,
2013-02-01 02:16:00,30.6,11.0,29.63,West,279,7.0,16.0,44,0.00,,,0.00,weatherlink.com 1.10,2013-02-01 07:16:00,
2013-02-01 02:31:00,30.6,9.0,29.64,WNW,287,8.0,19.0,41,0.00,,,0.00,weatherlink.com 1.10,2013-02-01 07:31:00,
2013-02-01 02:46:00,30.4,10.0,29.64,WNW,297,5.0,12.0,42,0.00,,,0.00,weatherlink.com 1.10,2013-02-01 07:46:00,
2013-02-01 03:01:00,30.3,11.0,29.64,West,281,3.0,14.0,44,0.00,,,0.00,weatherlink.com 1.10,2013-02-01 08:01:00,
2013-02-01 03:16:00,30.3,10.0,29.64,WSW,257,10.0,13.0,43,0.00,,,0.00,weatherlink.com 1.10,2013-02-01 08:16:00,
2013-02-01 03:31:00,30.1,9.0,29.64,WSW,242,6.0,15.0,42,0.00,,,0.00,weatherlink.com 1.10,2013-02-01 08:31:00,
2013-02-01 03:46:00,29.8,10.0,29.65,SW,219,6.0,14.0,43,0.00,,,0.00,weatherlink.com 1.10,2013-02-01 08:46:00,
2013-02-01 04:01:00,29.7,9.0,29.66,SW,229,3.0,16.0,42,0.00,,,0.00,weatherlink.com 1.10,2013-02-01 09:01:00,
2013-02-01 04:16:00,29.6,9.0,29.66,SW,231,7.0,10.0,43,0.00,,,0.00,weatherlink.com 1.10,2013-02-01 09:16:00,
2013-02-01 04:31:00,29.5,9.0,29.66,South,190,2.0,10.0,42,0.00,,,0.00,weatherlink.com 1.10,2013-02-01 09:31:00,
2013-02-01 04:46:00,29.3,9.0,29.67,West,263,4.0,12.0,42,0.00,,,0.00,weatherlink.com 1.10,2013-02-01 09:46:00,
2013-02-01 05:01:00,29.3,8.0,29.67,WSW,239,10.0,12.0,40,0.00,,,0.00,weatherlink.com 1.10,2013-02-01 10:01:00,
2013-02-01 05:18:00,29.1,9.0,29.67,SW,215,1.0,10.0,43,0.00,,,0.00,weatherlink.com 1.10,2013-02-01 10:18:00,
2013-02-01 05:31:00,28.7,13.0,29.68,West,274,6.0,9.0,53,0.00,,,0.00,weatherlink.com 1.10,2013-02-01 10:31:00,
2013-02-01 05:46:00,28.4,13.0,29.68,West,262,3.0,11.0,53,0.00,,,0.00,weatherlink.com 1.10,2013-02-01 10:46:00,
2013-02-01 06:01:00,28.1,13.0,29.68,SSW,200,3.0,7.0,53,0.00,,,0.00,weatherlink.com 1.10,2013-02-01 11:01:00,
2013-02-01 06:17:00,27.9,12.0,29.69,West,264,6.0,9.0,52,0.00,,,0.00,weatherlink.com 1.10,2013-02-01 11:17:00,
2013-02-01 06:31:00,27.9,12.0,29.70,NNW,338,2.0,9.0,52,0.00,,,0.00,weatherlink.com 1.10,2013-02-01 11:31:00,
2013-02-01 06:47:00,27.7,12.0,29.70,SW,236,4.0,10.0,52,0.00,,,0.00,weatherlink.com 1.10,2013-02-01 11:47:00,
2013-02-01 07:02:00,27.7,12.0,29.71,NW,304,1.0,7.0,52,0.00,,,0.00,weatherlink.com 1.10,2013-02-01 12:02:00,
2013-02-01 07:17:00,28.0,12.0,29.73,WNW,288,2.0,9.0,51,0.00,,,0.00,weatherlink.com 1.10,2013-02-01 12:17:00,
2013-02-01 07:32:00,28.2,12.0,29.73,SW,226,4.0,13.0,51,0.00,,,0.00,weatherlink.com 1.10,2013-02-01 12:32:00,
2013-02-01 07:47:00,28.2,12.0,29.74,SW,219,5.0,14.0,51,0.00,,,0.00,weatherlink.com 1.10,2013-02-01 12:47:00,
2013-02-01 08:02:00,28.4,13.0,29.75,WSW,256,7.0,18.0,52,0.00,,,0.00,weatherlink.com 1.10,2013-02-01 13:02:00,
2013-02-01 08:17:00,28.8,13.0,29.76,NW,312,6.0,12.0,52,0.00,,,0.00,weatherlink.com 1.10,2013-02-01 13:17:00,
2013-02-01 08:32:00,29.1,13.0,29.77,West,264,6.0,13.0,51,0.00,,,0.00,weatherlink.com 1.10,2013-02-01 13:32:00,
2013-02-01 08:47:00,29.5,14.0,29.78,West,273,4.0,15.0,52,0.00,,,0.00,weatherlink.com 1.10,2013-02-01 13:47:00,
2013-02-01 09:02:00,29.9,13.0,29.78,West,274,3.0,17.0,49,0.00,,,0.00,weatherlink.com 1.10,2013-02-01 14:02:00,
2013-02-01 09:17:00,30.0,12.0,29.78,West,267,12.0,14.0,47,0.00,,,0.00,weatherlink.com 1.10,2013-02-01 14:17:00,
2013-02-01 09:32:00,30.0,11.0,29.79,West,271,6.0,13.0,45,0.00,,,0.00,weatherlink.com 1.10,2013-02-01 14:32:00,
2013-02-01 09:47:00,30.0,11.0,29.79,NE,54,2.0,16.0,45,0.00,,,0.00,weatherlink.com 1.10,2013-02-01 14:47:00,
2013-02-01 10:02:00,30.2,9.0,29.78,WNW,285,6.0,15.0,41,0.00,,,0.00,weatherlink.com 1.10,2013-02-01 15:02:00,
2013-02-01 10:17:00,30.7,7.0,29.77,WSW,240,5.0,14.0,37,0.00,,,0.00,weatherlink.com 1.10,2013-02-01 15:17:00,
2013-02-01 10:32:00,31.2,6.0,29.77,WNW,290,11.0,15.0,35,0.00,,,0.00,weatherlink.com 1.10,2013-02-01 15:32:00,
2013-02-01 10:47:00,31.7,6.0,29.77,WNW,303,3.0,13.0,34,0.00,,,0.00,weatherlink.com 1.10,2013-02-01 15:47:00,
2013-02-01 11:02:00,31.6,6.0,29.79,NW,310,7.0,14.0,34,0.00,,,0.00,weatherlink.com 1.10,2013-02-01 16:02:00,
2013-02-01 11:17:00,32.0,8.0,29.78,West,264,8.0,14.0,36,0.00,,,0.00,weatherlink.com 1.10,2013-02-01 16:17:00,
2013-02-01 11:32:00,32.2,7.0,29.78,NNW,340,6.0,16.0,34,0.00,,,0.00,weatherlink.com 1.10,2013-02-01 16:32:00,
2013-02-01 11:47:00,32.6,8.0,29.78,North,352,1.0,12.0,35,0.00,,,0.00,weatherlink.com 1.10,2013-02-01 16:47:00,
2013-02-01 12:02:00,32.7,6.0,29.77,West,271,6.0,15.0,32,0.00,,,0.00,weatherlink.com 1.10,2013-02-01 17:02:00,
2013-02-01 12:18:00,32.9,6.0,29.76,WNW,291,6.0,17.0,32,0.00,,,0.00,weatherlink.com 1.10,2013-02-01 17:18:00,
2013-02-01 12:32:00,32.8,7.0,29.75,WNW,303,4.0,13.0,34,0.00,,,0.00,weatherlink.com 1.10,2013-02-01 17:32:00,
2013-02-01 12:47:00,33.3,7.0,29.74,WNW,291,6.0,16.0,33,0.00,,,0.00,weatherlink.com 1.10,2013-02-01 17:47:00,
2013-02-01 13:03:00,32.5,6.0,29.74,WNW,291,2.0,15.0,32,0.00,,,0.00,weatherlink.com 1.10,2013-02-01 18:03:00,
2013-02-01 13:17:00,32.7,6.0,29.76,WNW,301,6.0,17.0,33,0.00,,,0.00,weatherlink.com 1.10,2013-02-01 18:17:00,
2013-02-01 13:32:00,32.2,6.0,29.76,WNW,284,5.0,12.0,33,0.00,,,0.00,weatherlink.com 1.10,2013-02-01 18:32:00,
2013-02-01 13:47:00,33.2,6.0,29.76,NW,314,6.0,14.0,32,0.00,,,0.00,weatherlink.com 1.10,2013-02-01 18:47:00,
2013-02-01 14:02:00,33.7,5.0,29.76,West,278,7.0,10.0,30,0.00,,,0.00,weatherlink.com 1.10,2013-02-01 19:02:00,
2013-02-01 14:17:00,33.0,6.0,29.76,NE,51,4.0,11.0,32,0.00,,,0.00,weatherlink.com 1.10,2013-02-01 19:17:00,
2013-02-01 14:32:00,32.3,7.0,29.77,NNW,332,5.0,9.0,34,0.00,,,0.00,weatherlink.com 1.10,2013-02-01 19:32:00,
2013-02-01 14:47:00,31.6,7.0,29.78,ENE,59,3.0,10.0,35,0.00,,,0.00,weatherlink.com 1.10,2013-02-01 19:47:00,
2013-02-01 15:02:00,31.6,6.0,29.79,North,351,12.0,12.0,34,0.00,,,0.00,weatherlink.com 1.10,2013-02-01 20:02:00,
2013-02-01 15:17:00,31.1,6.0,29.79,WNW,293,3.0,15.0,35,0.00,,,0.00,weatherlink.com 1.10,2013-02-01 20:17:00,
2013-02-01 15:32:00,30.7,7.0,29.80,NNW,328,7.0,12.0,36,0.00,,,0.00,weatherlink.com 1.10,2013-02-01 20:32:00,
2013-02-01 15:48:00,30.4,6.0,29.81,NNW,334,4.0,14.0,36,0.00,,,0.00,weatherlink.com 1.10,2013-02-01 20:48:00,
2013-02-01 16:03:00,30.3,7.0,29.82,North,353,5.0,10.0,37,0.00,,,0.00,weatherlink.com 1.10,2013-02-01 21:03:00,
2013-02-01 16:18:00,30.2,7.0,29.82,NW,304,3.0,13.0,37,0.00,,,0.00,weatherlink.com 1.10,2013-02-01 21:18:00,
2013-02-01 16:33:00,29.9,7.0,29.83,West,281,7.0,12.0,38,0.00,,,0.00,weatherlink.com 1.10,2013-02-01 21:33:00,
2013-02-01 16:48:00,29.9,8.0,29.85,WNW,291,1.0,10.0,39,0.00,,,0.00,weatherlink.com 1.10,2013-02-01 21:48:00,
2013-02-01 17:03:00,29.8,7.0,29.86,West,270,4.0,8.0,39,0.00,,,0.00,weatherlink.com 1.10,2013-02-01 22:03:00,
2013-02-01 17:18:00,29.5,7.0,29.87,West,274,6.0,10.0,38,0.00,,,0.00,weatherlink.com 1.10,2013-02-01 22:18:00,
2013-02-01 17:33:00,29.4,7.0,29.88,West,266,2.0,10.0,39,0.00,,,0.00,weatherlink.com 1.10,2013-02-01 22:33:00,
2013-02-01 17:48:00,29.1,7.0,29.90,West,269,2.0,11.0,40,0.00,,,0.00,weatherlink.com 1.10,2013-02-01 22:48:00,
2013-02-01 18:03:00,28.9,8.0,29.91,WNW,303,1.0,10.0,41,0.00,,,0.00,weatherlink.com 1.10,2013-02-01 23:03:00,
2013-02-01 18:18:00,28.7,8.0,29.93,WSW,253,1.0,14.0,41,0.00,,,0.00,weatherlink.com 1.10,2013-02-01 23:18:00,
2013-02-01 18:33:00,28.3,7.0,29.94,NW,315,1.0,13.0,40,0.00,,,0.00,weatherlink.com 1.10,2013-02-01 23:33:00,
2013-02-01 18:48:00,27.9,6.0,29.95,NNW,334,1.0,8.0,40,0.00,,,0.00,weatherlink.com 1.10,2013-02-01 23:48:00,
2013-02-01 19:04:00,27.3,6.0,29.96,WSW,255,1.0,7.0,41,0.00,,,0.00,weatherlink.com 1.10,2013-02-02 00:04:00,
2013-02-01 19:18:00,27.1,7.0,29.97,NNW,330,1.0,6.0,42,0.00,,,0.00,weatherlink.com 1.10,2013-02-02 00:18:00,
2013-02-01 19:33:00,27.1,7.0,29.98,WNW,301,5.0,11.0,42,0.00,,,0.00,weatherlink.com 1.10,2013-02-02 00:33:00,
2013-02-01 19:49:00,27.1,8.0,29.99,West,281,5.0,10.0,44,0.00,,,0.00,weatherlink.com 1.10,2013-02-02 00:49:00,
2013-02-01 20:03:00,26.9,8.0,29.99,WSW,253,3.0,8.0,45,0.00,,,0.00,weatherlink.com 1.10,2013-02-02 01:03:00,
2013-02-01 20:18:00,26.6,8.0,30.00,WNW,295,6.0,9.0,45,0.00,,,0.00,weatherlink.com 1.10,2013-02-02 01:18:00,
2013-02-01 20:33:00,26.4,8.0,30.00,West,280,1.0,11.0,46,0.00,,,0.00,weatherlink.com 1.10,2013-02-02 01:33:00,
2013-02-01 20:48:00,26.3,8.0,30.02,West,274,4.0,11.0,45,0.00,,,0.00,weatherlink.com 1.10,2013-02-02 01:48:00,
2013-02-01 21:04:00,26.2,7.0,30.02,West,268,7.0,11.0,45,0.00,,,0.00,weatherlink.com 1.10,2013-02-02 02:04:00,
2013-02-01 21:19:00,25.6,6.0,30.03,West,281,7.0,15.0,43,0.00,,,0.00,weatherlink.com 1.10,2013-02-02 02:19:00,
2013-02-01 21:34:00,25.0,5.0,30.03,West,259,5.0,12.0,43,0.00,,,0.00,weatherlink.com 1.10,2013-02-02 02:34:00,
2013-02-01 21:49:00,24.7,5.0,30.04,West,270,8.0,11.0,43,0.00,,,0.00,weatherlink.com 1.10,2013-02-02 02:49:00,
2013-02-01 22:04:00,24.4,4.0,30.05,WNW,291,4.0,12.0,42,0.00,,,0.00,weatherlink.com 1.10,2013-02-02 03:04:00,
2013-02-01 22:19:00,24.3,5.0,30.05,West,261,11.0,15.0,43,0.00,,,0.00,weatherlink.com 1.10,2013-02-02 03:19:00,
2013-02-01 22:34:00,24.0,4.0,30.05,West,276,6.0,13.0,42,0.00,,,0.00,weatherlink.com 1.10,2013-02-02 03:34:00,
2013-02-01 22:49:00,23.7,4.0,30.06,NW,315,7.0,12.0,43,0.00,,,0.00,weatherlink.com 1.10,2013-02-02 03:49:00,
2013-02-01 23:04:00,23.6,4.0,30.06,West,277,7.0,14.0,43,0.00,,,0.00,weatherlink.com 1.10,2013-02-02 04:04:00,
2013-02-01 23:19:00,23.3,4.0,30.07,WSW,256,1.0,10.0,43,0.00,,,0.00,weatherlink.com 1.10,2013-02-02 04:19:00,
2013-02-01 23:34:00,23.1,4.0,30.08,WNW,297,3.0,10.0,43,0.00,,,0.00,weatherlink.com 1.10,2013-02-02 04:34:00,
2013-02-01 23:49:00,22.9,4.0,30.08,NW,323,5.0,12.0,44,0.00,,,0.00,weatherlink.com 1.10,2013-02-02 04:49:00,